• In Hungary
  • List of Countries
  • For 7 days
  • Water Temperature
  • Satellite Maps
  • Weather Map
  • News
  • Weather Widgets
  • user-avatar
    Login

    Hourly Weather Chuguev

    Today, 13 November, Tuesday

    Time Temperature Precipitation Wind Pressure Humidity
    00:00 -7°C° 0 mm 5 mps 770 mmHg 37%
    01:00 -8°C° 0 mm 5 mps 770 mmHg 38%
    02:00 -8°C° 0 mm 5 mps 770 mmHg 38%
    03:00 -8°C° 0 mm 5 mps 770 mmHg 37%
    04:00 -8°C° 0 mm 5 mps 770 mmHg 37%
    05:00 -8°C° 0 mm 5 mps 769 mmHg 36%
    06:00 -8°C° 0 mm 5 mps 769 mmHg 35%
    07:00 -8°C° 0 mm 5 mps 769 mmHg 33%
    08:00 -8°C° 0 mm 5 mps 770 mmHg 32%
    09:00 -7°C° 0 mm 5 mps 769 mmHg 31%
    10:00 -5°C° 0 mm 4 mps 769 mmHg 30%
    11:00 -4°C° 0 mm 4 mps 769 mmHg 30%
    12:00 -4°C° 0 mm 4 mps 769 mmHg 31%
    13:00 -3°C° 0 mm 4 mps 768 mmHg 33%
    14:00 -2°C° 0 mm 4 mps 768 mmHg 34%
    15:00 -3°C° 0 mm 4 mps 768 mmHg 38%
    16:00 -4°C° 0 mm 3 mps 768 mmHg 42%
    17:00 -5°C° 0 mm 3 mps 768 mmHg 45%
    18:00 -5°C° 0 mm 3 mps 767 mmHg 47%
    19:00 -5°C° 0 mm 3 mps 767 mmHg 49%
    20:00 -5°C° 0 mm 4 mps 767 mmHg 50%
    21:00 -5°C° 0 mm 4 mps 767 mmHg 52%
    22:00 -5°C° 0 mm 4 mps 767 mmHg 54%
    23:00 -5°C° 0 mm 3 mps 766 mmHg 56%

    Tomorrow, 14 November, Wednesday

    Time Temperature Precipitation Wind Pressure Humidity
    00:00 -5°C° 0 mm 3 mps 766 mmHg 57%
    01:00 -5°C° 0 mm 3 mps 766 mmHg 59%
    02:00 -5°C° 0 mm 3 mps 766 mmHg 60%
    03:00 -5°C° 0 mm 3 mps 765 mmHg 62%
    04:00 -5°C° 0 mm 3 mps 765 mmHg 64%
    05:00 -6°C° 0 mm 3 mps 764 mmHg 66%
    06:00 -5°C° 0 mm 3 mps 764 mmHg 67%
    07:00 -5°C° 0 mm 4 mps 764 mmHg 69%
    08:00 -5°C° 0 mm 4 mps 764 mmHg 70%
    09:00 -3°C° 0 mm 4 mps 763 mmHg 69%
    10:00 -2°C° 0 mm 4 mps 763 mmHg 67%
    11:00 -1°C° 0 mm 4 mps 763 mmHg 66%
    12:00 0°C° 0 mm 4 mps 762 mmHg 66%
    13:00 0°C° 0 mm 4 mps 762 mmHg 66%
    14:00 0°C° 0 mm 4 mps 761 mmHg 67%
    15:00 +1°C° 0 mm 3 mps 761 mmHg 70%
    16:00 0°C° 0 mm 3 mps 761 mmHg 74%
    17:00 -1°C° 0 mm 2 mps 761 mmHg 78%
    18:00 -1°C° 0 mm 3 mps 761 mmHg 79%
    19:00 -2°C° 0 mm 3 mps 761 mmHg 79%
    20:00 -2°C° 0 mm 3 mps 761 mmHg 80%
    21:00 -2°C° 0 mm 3 mps 761 mmHg 82%
    22:00 -2°C° 0 mm 3 mps 761 mmHg 85%
    23:00 -2°C° 0 mm 3 mps 761 mmHg 87%

    Day after tomorrow, 15 November, Thursday

    Time Temperature Precipitation Wind Pressure Humidity
    00:00 -2°C° 0 mm 3 mps 761 mmHg 87%
    01:00 -2°C° 0 mm 3 mps 761 mmHg 87%
    02:00 -2°C° 0 mm 3 mps 761 mmHg 87%
    03:00 -4°C° 0 mm 4 mps 761 mmHg 87%
    04:00 -4°C° 0 mm 4 mps 761 mmHg 87%
    05:00 -4°C° 0 mm 4 mps 761 mmHg 87%
    06:00 -4°C° 0 mm 4 mps 761 mmHg 84%
    07:00 -4°C° 0 mm 4 mps 762 mmHg 82%
    08:00 -4°C° 0 mm 4 mps 762 mmHg 79%
    09:00 -4°C° 0 mm 5 mps 762 mmHg 72%
    10:00 -1°C° 0 mm 5 mps 762 mmHg 66%
    11:00 0°C° 0 mm 5 mps 762 mmHg 59%
    12:00 0°C° 0 mm 5 mps 762 mmHg 56%
    13:00 +1°C° 0 mm 5 mps 762 mmHg 54%
    14:00 +1°C° 0 mm 5 mps 762 mmHg 51%
    15:00 0°C° 0 mm 5 mps 762 mmHg 54%
    16:00 -1°C° 0 mm 4 mps 763 mmHg 57%
    17:00 -2°C° 0 mm 4 mps 763 mmHg 61%
    18:00 -2°C° 0 mm 4 mps 763 mmHg 61%
    19:00 -3°C° 0 mm 4 mps 764 mmHg 61%
    20:00 -3°C° 0 mm 4 mps 764 mmHg 61%
    21:00 -3°C° 0 mm 4 mps 764 mmHg 60%
    22:00 -4°C° 0 mm 4 mps 764 mmHg 60%
    23:00 -4°C° 0 mm 4 mps 764 mmHg 60%

    16 November, Friday

    Time Temperature Precipitation Wind Pressure Humidity
    00:00 -4°C° 0 mm 4 mps 764 mmHg 58%
    01:00 -4°C° 0 mm 4 mps 764 mmHg 56%
    02:00 -4°C° 0 mm 4 mps 764 mmHg 55%
    03:00 -4°C° 0 mm 4 mps 764 mmHg 52%
    04:00 -4°C° 0 mm 4 mps 764 mmHg 49%
    05:00 -4°C° 0 mm 4 mps 764 mmHg 46%
    06:00 -5°C° 0 mm 5 mps 765 mmHg 43%
    07:00 -5°C° 0 mm 5 mps 765 mmHg 40%
    08:00 -5°C° 0 mm 5 mps 765 mmHg 37%
    09:00 -4°C° 0 mm 5 mps 765 mmHg 35%
    10:00 -2°C° 0 mm 5 mps 765 mmHg 33%
    11:00 -1°C° 0 mm 5 mps 765 mmHg 32%
    12:00 0°C° 0 mm 5 mps 765 mmHg 33%
    13:00 0°C° 0 mm 5 mps 765 mmHg 34%
    14:00 +1°C° 0 mm 5 mps 765 mmHg 35%
    15:00 0°C° 0 mm 5 mps 765 mmHg 37%
    16:00 -1°C° 0 mm 5 mps 765 mmHg 39%
    17:00 -2°C° 0 mm 4 mps 765 mmHg 40%
    18:00 -2°C° 0 mm 4 mps 765 mmHg 40%
    19:00 -3°C° 0 mm 4 mps 765 mmHg 39%
    20:00 -3°C° 0 mm 4 mps 766 mmHg 38%
    21:00 -3°C° 0 mm 4 mps 766 mmHg 38%
    22:00 -4°C° 0 mm 4 mps 766 mmHg 39%
    23:00 -4°C° 0 mm 4 mps 766 mmHg 39%

    17 November, Saturday

    Time Temperature Precipitation Wind Pressure Humidity
    00:00 -4°C° 0 mm 4 mps 766 mmHg 39%
    01:00 -4°C° 0 mm 4 mps 765 mmHg 39%
    02:00 -4°C° 0 mm 4 mps 765 mmHg 39%
    03:00 -4°C° 0 mm 4 mps 765 mmHg 39%
    04:00 -4°C° 0 mm 4 mps 765 mmHg 39%
    05:00 -4°C° 0 mm 4 mps 765 mmHg 39%
    06:00 -4°C° 0 mm 4 mps 765 mmHg 38%
    07:00 -4°C° 0 mm 4 mps 765 mmHg 37%
    08:00 -4°C° 0 mm 4 mps 766 mmHg 36%
    09:00 -2°C° 0 mm 4 mps 765 mmHg 33%
    10:00 -1°C° 0 mm 4 mps 765 mmHg 30%
    11:00 0°C° 0 mm 4 mps 765 mmHg 27%
    12:00 0°C° 0 mm 4 mps 765 mmHg 27%
    13:00 +1°C° 0 mm 4 mps 764 mmHg 26%
    14:00 +1°C° 0 mm 4 mps 764 mmHg 26%
    15:00 +1°C° 0 mm 3 mps 764 mmHg 28%
    16:00 0°C° 0 mm 3 mps 764 mmHg 30%
    17:00 -2°C° 0 mm 3 mps 764 mmHg 32%
    18:00 -2°C° 0 mm 3 mps 763 mmHg 31%
    19:00 -2°C° 0 mm 2 mps 763 mmHg 31%
    20:00 -3°C° 0 mm 2 mps 763 mmHg 31%
    21:00 -3°C° 0 mm 2 mps 763 mmHg 30%
    22:00 -3°C° 0 mm 2 mps 763 mmHg 29%
    23:00 -1°C° 0 mm 1 mps 762 mmHg 28%

    18 November, Sunday

    Time Temperature Precipitation Wind Pressure Humidity
    00:00 -1°C° 0 mm 1 mps 762 mmHg 27%
    01:00 -1°C° 0 mm 1 mps 761 mmHg 27%
    02:00 -1°C° 0 mm 1 mps 761 mmHg 26%
    03:00 -3°C° 0 mm 2 mps 760 mmHg 26%
    04:00 -4°C° 0 mm 2 mps 760 mmHg 26%
    05:00 -4°C° 0 mm 2 mps 759 mmHg 26%
    06:00 -3°C° 0 mm 2 mps 759 mmHg 26%
    07:00 -4°C° 0 mm 3 mps 758 mmHg 27%
    08:00 -4°C° 0 mm 3 mps 758 mmHg 28%
    09:00 -2°C° 0 mm 3 mps 757 mmHg 29%
    10:00 -1°C° 0 mm 4 mps 756 mmHg 31%
    11:00 0°C° 0 mm 4 mps 756 mmHg 33%
    12:00 0°C° 0.1 mm 4 mps 755 mmHg 40%
    13:00 0°C° 0.1 mm 4 mps 754 mmHg 46%
    14:00 0°C° 0.1 mm 4 mps 753 mmHg 53%
    15:00 -1°C° 0.2 mm 4 mps 753 mmHg 61%
    16:00 -1°C° 0.2 mm 4 mps 753 mmHg 69%
    17:00 -1°C° 0.2 mm 3 mps 752 mmHg 77%
    18:00 -1°C° 0.1 mm 3 mps 752 mmHg 80%
    19:00 -1°C° 0.1 mm 3 mps 752 mmHg 82%
    20:00 -1°C° 0.1 mm 3 mps 752 mmHg 85%
    21:00 -1°C° 0.2 mm 3 mps 751 mmHg 87%
    22:00 -1°C° 0.2 mm 2 mps 751 mmHg 89%
    23:00 -1°C° 0.2 mm 2 mps 751 mmHg 90%
    Show more